#timestamp,LO_Frequency,Hit,StdDev 
1662030015.4,286046998.9,N
1662030035.3,286046998.7,N
1662030055.1,286046998.2,N
1662030075.8,286046998.9,N
1662030095.7,286046999.5,N
1662030115.5,286047001.2,N
1662030135.4,286046999.7,N
1662030155.2,286047000.4,N
1662030175.1,286047000.6,N
1662030176.0,286047000.6,N
1662030195.8,286047002.4,N
1662030215.6,286047002.7,N
1662030235.5,286047002.8,N
1662030255.3,286046999.9,N
1662030275.1,286047002.3,N
1662030295.9,286047002.5,N
1662030315.7,286047000.3,N
1662030335.6,286047002.8,N
1662030355.4,286047000.8,N
1662030375.2,286046999.8,N
1662030395.1,286046999.7,N
1662030396.0,286046999.7,N
1662030415.8,286047000.2,N
1662030435.7,286046999.9,N
1662030455.5,286047002.3,N
1662030475.3,286047000.3,N
1662030495.2,286046999.9,N
1662030515.0,286047000.6,N
1662030515.9,286047000.6,N
1662030535.8,286047000.4,N
1662030555.6,286046999.7,N
1662030575.4,286046999.8,N
1662030595.3,286047000.0,N
1662030615.1,286047001.9,N
1662030635.9,286047002.5,N
1662030655.7,286047004.3,Y
1662030675.5,286047001.8,P
1662030695.4,286047002.0,P
1662030715.2,286047002.4,P
1662030735.0,286047002.8,Y
1662030735.9,286047002.8,P
1662030755.8,286046998.8,N
1662030775.6,286046999.0,N
1662030795.5,286046996.6,N
1662030815.3,286046996.9,N
1662030835.1,286046997.0,N
1662030855.9,286046998.5,N
1662030875.7,286046998.4,N
1662030895.5,286046999.3,N
1662030915.4,286046999.5,N
1662030935.2,286047001.2,N
1662030955.1,286046998.8,N
1662030956.0,286046998.8,N
1662030975.8,286046998.9,N
1662030995.6,286046996.6,N
1662031015.5,286046999.6,N
1662031035.3,286046999.2,N
1662031055.2,286046999.1,N
1662031075.9,286046998.8,N
1662031095.7,286046998.7,N
1662031115.6,286046998.7,N
1662031135.4,286047000.8,N
1662031155.2,286046998.4,N
1662031175.1,286046998.8,N
1662031176.0,286046998.8,N
1662031195.8,286046998.4,N
1662031215.7,286046999.6,N
1662031235.5,286046998.8,N
1662031255.3,286046998.3,N
1662031275.2,286046998.8,N
1662031295.0,286047000.8,N
1662031295.9,286047000.8,N
1662031315.7,286046998.1,N
1662031335.6,286046998.5,N
1662031355.4,286046998.6,N
1662031375.3,286047001.0,N
1662031395.1,286047000.8,N
1662031396.0,286047000.8,N
1662031415.8,286047000.7,N
1662031435.7,286047000.4,N
1662031455.5,286047000.6,N
1662031475.3,286046998.2,N
1662031495.2,286046998.5,N
1662031515.0,286047000.8,N
1662031515.9,286047000.8,N
1662031535.8,286047000.7,N
1662031555.6,286046999.8,N
1662031575.4,286047000.4,N
1662031595.3,286047001.0,N
1662031615.1,286047001.0,N
1662031635.8,286046998.2,N
1662031655.7,286046998.1,N
1662031675.5,286046998.8,N
1662031695.4,286046998.7,N
1662031715.2,286046998.6,N
1662031735.0,286046998.1,N
1662031735.9,286046998.1,N
1662031755.8,286046999.3,N
1662031775.6,286046998.6,N
1662031795.5,286047001.2,N
1662031815.3,286047000.0,N
1662031835.1,286047000.0,N
1662031855.9,286047000.8,N
1662031875.7,286046998.4,N
1662031895.5,286047000.9,N
1662031915.4,286047000.7,N
1662031935.2,286046999.7,N
1662031955.1,286047002.4,N
1662031956.0,286047002.4,N
1662031975.8,286047000.9,N
1662031995.6,286047000.7,N
1662032015.5,286047000.1,N
1662032035.3,286047000.0,N
1662032055.2,286047000.7,N
1662032075.9,286046998.2,N
1662032095.7,286046998.1,N
1662032115.6,286046998.6,N
1662032135.4,286047001.2,N
1662032155.2,286047000.4,N
1662032175.1,286046999.9,N
1662032176.0,286046999.9,N
1662032195.8,286047000.3,N
1662032215.7,286047000.3,N
1662032235.5,286047002.4,N
1662032255.3,286047001.6,N
1662032275.2,286047004.0,Y
1662032295.0,286047000.1,P
1662032295.9,286047000.1,P
1662032315.8,286047000.8,P
1662032335.6,286046998.1,Y
1662032355.4,286046998.8,P
1662032375.3,286046999.6,N
1662032395.1,286046998.2,P
1662032415.8,286046999.3,N
1662032435.7,286047001.0,N
1662032455.5,286047002.1,N
1662032475.4,286047002.4,N
1662032495.2,286047000.0,N
1662032515.0,286046998.1,N
1662032515.9,286046998.1,N
1662032535.8,286046998.2,N
1662032555.6,286047000.9,N
1662032575.4,286047000.3,N
1662032595.3,286046999.9,N
1662032615.1,286046999.9,N
1662032635.9,286047000.5,N
1662032655.7,286047000.5,N
1662032675.5,286047002.4,N
1662032695.4,286047000.1,N
1662032715.2,286046999.8,N
1662032735.0,286047002.8,N
1662032735.9,286047002.8,N
1662032755.8,286047001.0,N
1662032775.6,286047000.5,N
1662032795.5,286046999.7,N
1662032815.3,286047000.0,N
1662032835.1,286047001.2,N
1662032855.9,286047001.2,N
1662032875.7,286046998.1,N
1662032895.5,286046998.4,N
1662032915.4,286047001.2,N
1662032935.2,286046998.5,N
1662032955.1,286046998.5,N
1662032956.0,286046998.5,N
1662032975.8,286047000.0,N
1662032995.6,286046998.4,N
1662033015.5,286046998.1,N
1662033035.3,286047001.1,N
1662033055.1,286047000.3,N
1662033075.9,286047001.0,N
1662033095.7,286047000.2,N
1662033115.6,286047002.8,N
1662033135.4,286047000.0,N
1662033155.2,286047002.8,N
1662033175.1,286047001.9,N
1662033176.0,286047001.9,N
1662033195.8,286047002.5,N
1662033215.7,286047002.2,N
1662033235.5,286047002.2,N
1662033255.3,286047003.5,N
1662033275.2,286047004.1,N
1662033295.0,286047001.7,N
1662033295.9,286047001.7,N
1662033315.7,286047003.8,N
1662033335.6,286047004.1,N
1662033355.4,286047001.5,N
1662033375.3,286047004.0,N
1662033395.1,286047005.9,Y
1662033415.8,286047003.1,P
1662033435.7,286047005.3,P
1662033455.5,286047005.0,N
1662033475.4,286047007.5,Y
1662033495.2,286047002.0,P
1662033515.0,286047000.1,N
1662033515.9,286047000.1,N
1662033535.8,286046999.9,N
1662033555.6,286046998.6,N
1662033575.5,286047000.5,N
1662033595.3,286046998.2,N
